Time,TemperatureF,DewpointF,PressureIn,WindDirection,WindDirectionDegrees,WindSpeedMPH,WindSpeedGustMPH,Humidity,HourlyPrecipIn,Conditions,Clouds,dailyrainin,SoftwareType,DateUTC
2013-01-08 00:04:00,32.0,29.0,30.33,East,89,0.0,1.0,89,0.00,,,0.01,,2013-01-08 05:04:00,
2013-01-08 00:12:00,32.0,29.0,30.33,East,89,0.0,1.0,89,0.00,,,0.01,,2013-01-08 05:12:00,
2013-01-08 00:22:00,32.0,29.0,30.33,East,89,0.0,0.0,90,0.00,,,0.01,,2013-01-08 05:22:00,
2013-01-08 00:33:00,32.0,29.0,30.33,East,89,0.0,0.0,90,0.00,,,0.01,,2013-01-08 05:33:00,
2013-01-08 00:42:00,32.0,29.0,30.33,East,89,0.0,0.0,90,0.00,,,0.01,,2013-01-08 05:42:00,
2013-01-08 00:53:00,33.0,30.0,30.34,East,89,0.0,0.0,89,0.00,,,0.01,,2013-01-08 05:53:00,
2013-01-08 01:02:00,33.0,30.0,30.32,East,89,0.0,0.0,89,0.00,,,0.01,,2013-01-08 06:02:00,
2013-01-08 01:12:00,33.0,30.0,30.32,East,89,0.0,0.0,89,0.00,,,0.01,,2013-01-08 06:12:00,
2013-01-08 01:22:00,33.0,30.0,30.32,East,89,0.0,0.0,89,0.00,,,0.01,,2013-01-08 06:22:00,
2013-01-08 01:33:00,33.0,30.0,30.33,East,89,0.0,0.0,89,0.00,,,0.01,,2013-01-08 06:33:00,
2013-01-08 01:42:00,33.0,30.0,30.33,East,89,0.0,0.0,89,0.00,,,0.01,,2013-01-08 06:42:00,
2013-01-08 01:53:00,33.0,30.0,30.33,East,89,0.0,0.0,89,0.00,,,0.01,,2013-01-08 06:53:00,
2013-01-08 02:02:00,32.0,29.0,30.33,East,89,0.0,0.0,89,0.00,,,0.01,,2013-01-08 07:02:00,
2013-01-08 02:12:00,32.0,29.0,30.33,East,89,0.0,0.0,89,0.00,,,0.01,,2013-01-08 07:12:00,
2013-01-08 02:22:00,32.0,29.0,30.34,East,89,0.0,0.0,90,0.00,,,0.01,,2013-01-08 07:22:00,
2013-01-08 02:32:00,31.0,28.0,30.33,East,89,0.0,0.0,90,0.00,,,0.01,,2013-01-08 07:32:00,
2013-01-08 02:42:00,31.0,28.0,30.33,East,89,0.0,0.0,90,0.00,,,0.01,,2013-01-08 07:42:00,
2013-01-08 02:52:00,31.0,29.0,30.32,East,89,0.0,0.0,91,0.00,,,0.01,,2013-01-08 07:52:00,
2013-01-08 03:02:00,31.0,29.0,30.33,East,89,0.0,0.0,91,0.00,,,0.01,,2013-01-08 08:02:00,
2013-01-08 03:12:00,31.0,29.0,30.33,East,89,0.0,0.0,91,0.00,,,0.01,,2013-01-08 08:12:00,
2013-01-08 03:22:00,31.0,29.0,30.32,East,89,0.0,0.0,92,0.00,,,0.01,,2013-01-08 08:22:00,
2013-01-08 03:32:00,31.0,29.0,30.32,East,89,0.0,0.0,92,0.00,,,0.01,,2013-01-08 08:32:00,
2013-01-08 03:42:00,31.0,29.0,30.32,East,89,0.0,0.0,92,0.00,,,0.01,,2013-01-08 08:42:00,
2013-01-08 03:53:00,32.0,30.0,30.32,East,89,0.0,0.0,93,0.00,,,0.01,,2013-01-08 08:53:00,
2013-01-08 04:02:00,33.0,31.0,30.31,East,89,0.0,0.0,93,0.00,,,0.01,,2013-01-08 09:02:00,
2013-01-08 04:12:00,33.0,31.0,30.31,East,89,0.0,0.0,93,0.00,,,0.01,,2013-01-08 09:12:00,
2013-01-08 04:22:00,33.0,31.0,30.31,East,89,0.0,0.0,92,0.00,,,0.01,,2013-01-08 09:22:00,
2013-01-08 04:32:00,33.0,31.0,30.31,East,89,0.0,0.0,92,0.00,,,0.01,,2013-01-08 09:32:00,
2013-01-08 04:42:00,33.0,31.0,30.31,East,89,0.0,0.0,92,0.00,,,0.01,,2013-01-08 09:42:00,
2013-01-08 04:52:00,34.0,32.0,30.31,East,89,0.0,0.0,92,0.00,,,0.01,,2013-01-08 09:52:00,
2013-01-08 05:02:00,35.0,33.0,30.31,East,89,0.0,0.0,93,0.00,,,0.01,,2013-01-08 10:02:00,
2013-01-08 05:12:00,35.0,33.0,30.31,East,89,0.0,0.0,93,0.00,,,0.01,,2013-01-08 10:12:00,
2013-01-08 05:22:00,36.0,34.0,30.31,East,89,0.0,0.0,92,0.00,,,0.01,,2013-01-08 10:22:00,
2013-01-08 05:32:00,36.0,34.0,30.31,East,89,0.0,0.0,92,0.00,,,0.01,,2013-01-08 10:32:00,
2013-01-08 05:42:00,36.0,34.0,30.31,East,89,0.0,0.0,92,0.00,,,0.01,,2013-01-08 10:42:00,
2013-01-08 05:53:00,36.0,34.0,30.31,East,89,0.0,0.0,91,0.00,,,0.01,,2013-01-08 10:53:00,
2013-01-08 06:02:00,37.0,34.0,30.31,East,89,0.0,2.0,89,0.00,,,0.01,,2013-01-08 11:02:00,
2013-01-08 06:12:00,37.0,34.0,30.31,East,89,0.0,2.0,89,0.00,,,0.01,,2013-01-08 11:12:00,
2013-01-08 06:22:00,38.0,34.0,30.31,East,89,0.0,0.0,87,0.00,,,0.01,,2013-01-08 11:22:00,
2013-01-08 06:33:00,38.0,33.0,30.32,East,89,0.0,0.0,83,0.00,,,0.01,,2013-01-08 11:33:00,
2013-01-08 06:42:00,38.0,33.0,30.32,East,89,0.0,0.0,83,0.00,,,0.01,,2013-01-08 11:42:00,
2013-01-08 06:53:00,39.0,34.0,30.32,East,89,0.0,0.0,81,0.00,,,0.01,,2013-01-08 11:53:00,
2013-01-08 07:03:00,39.0,33.0,30.32,East,89,0.0,0.0,80,0.00,,,0.01,,2013-01-08 12:03:00,
2013-01-08 07:12:00,39.0,33.0,30.32,East,89,0.0,0.0,80,0.00,,,0.01,,2013-01-08 12:12:00,
2013-01-08 07:22:00,39.0,33.0,30.32,East,89,0.0,0.0,79,0.00,,,0.01,,2013-01-08 12:22:00,
2013-01-08 07:33:00,39.0,33.0,30.32,East,89,0.0,0.0,80,0.00,,,0.01,,2013-01-08 12:33:00,
2013-01-08 07:42:00,39.0,33.0,30.32,East,89,0.0,0.0,80,0.00,,,0.01,,2013-01-08 12:42:00,
2013-01-08 07:53:00,39.0,33.0,30.33,East,89,0.0,1.0,79,0.00,,,0.01,,2013-01-08 12:53:00,
2013-01-08 08:03:00,39.0,33.0,30.33,East,89,0.0,1.0,78,0.00,,,0.01,,2013-01-08 13:03:00,
2013-01-08 08:12:00,39.0,33.0,30.33,East,89,0.0,1.0,78,0.00,,,0.01,,2013-01-08 13:12:00,
2013-01-08 08:22:00,39.0,32.0,30.33,East,89,0.0,1.0,77,0.00,,,0.01,,2013-01-08 13:22:00,
2013-01-08 08:33:00,40.0,33.0,30.35,East,89,0.0,0.0,76,0.00,,,0.01,,2013-01-08 13:33:00,
2013-01-08 08:43:00,40.0,33.0,30.35,East,89,0.0,0.0,76,0.00,,,0.01,,2013-01-08 13:43:00,
2013-01-08 08:53:00,40.0,32.0,30.35,East,89,0.0,0.0,74,0.00,,,0.01,,2013-01-08 13:53:00,
2013-01-08 09:02:00,41.0,33.0,30.36,East,89,0.0,1.0,73,0.00,,,0.01,,2013-01-08 14:02:00,
2013-01-08 09:13:00,41.0,33.0,30.36,East,89,0.0,1.0,73,0.00,,,0.01,,2013-01-08 14:13:00,
2013-01-08 09:23:00,41.0,33.0,30.36,East,89,0.0,2.0,73,0.00,,,0.01,,2013-01-08 14:23:00,
2013-01-08 09:33:00,41.0,33.0,30.37,East,89,0.0,0.0,72,0.00,,,0.01,,2013-01-08 14:33:00,
2013-01-08 09:43:00,41.0,33.0,30.37,East,89,0.0,0.0,72,0.00,,,0.01,,2013-01-08 14:43:00,
2013-01-08 09:53:00,42.0,34.0,30.37,East,89,0.0,0.0,72,0.00,,,0.00,,2013-01-08 14:53:00,
2013-01-08 10:03:00,43.0,34.0,30.37,East,89,0.0,1.0,70,0.00,,,0.00,,2013-01-08 15:03:00,
2013-01-08 10:12:00,43.0,34.0,30.37,East,89,0.0,1.0,70,0.00,,,0.00,,2013-01-08 15:12:00,
2013-01-08 10:22:00,43.0,33.0,30.37,ESE,117,1.0,3.0,68,0.00,,,0.00,,2013-01-08 15:22:00,
2013-01-08 10:33:00,44.0,33.0,30.37,NNE,14,0.0,3.0,65,0.00,,,0.00,,2013-01-08 15:33:00,
2013-01-08 10:43:00,44.0,33.0,30.37,NNE,14,0.0,3.0,65,0.00,,,0.00,,2013-01-08 15:43:00,
2013-01-08 10:53:00,45.0,33.0,30.37,NE,53,0.0,3.0,63,0.00,,,0.00,,2013-01-08 15:53:00,
2013-01-08 11:03:00,45.0,34.0,30.37,NE,53,0.0,0.0,64,0.00,,,0.00,,2013-01-08 16:03:00,
2013-01-08 11:12:00,45.0,34.0,30.37,NE,53,0.0,0.0,64,0.00,,,0.00,,2013-01-08 16:12:00,
2013-01-08 11:23:00,46.0,33.0,30.37,NNE,19,0.0,3.0,60,0.00,,,0.00,,2013-01-08 16:23:00,
2013-01-08 11:34:00,46.0,33.0,30.36,NNE,19,0.0,2.0,61,0.00,,,0.00,,2013-01-08 16:34:00,
2013-01-08 11:42:00,46.0,33.0,30.36,NNE,19,0.0,2.0,61,0.00,,,0.00,,2013-01-08 16:42:00,
2013-01-08 11:53:00,47.0,33.0,30.35,NE,44,0.0,1.0,58,0.00,,,0.00,,2013-01-08 16:53:00,
2013-01-08 12:03:00,49.0,34.0,30.34,ENE,78,0.0,2.0,57,0.00,,,0.00,,2013-01-08 17:03:00,
2013-01-08 12:13:00,49.0,34.0,30.34,ENE,78,0.0,2.0,57,0.00,,,0.00,,2013-01-08 17:13:00,
2013-01-08 12:23:00,49.0,34.0,30.34,ENE,62,0.0,3.0,55,0.00,,,0.00,,2013-01-08 17:23:00,
2013-01-08 12:34:00,50.0,34.0,30.32,NE,56,0.0,3.0,55,0.00,,,0.00,,2013-01-08 17:34:00,
2013-01-08 12:43:00,50.0,34.0,30.32,NE,56,0.0,3.0,55,0.00,,,0.00,,2013-01-08 17:43:00,
2013-01-08 12:53:00,50.0,34.0,30.32,North,10,0.0,4.0,54,0.00,,,0.00,,2013-01-08 17:53:00,
2013-01-08 13:04:00,50.0,34.0,30.32,North,10,0.0,2.0,54,0.00,,,0.00,,2013-01-08 18:04:00,
2013-01-08 13:13:00,50.0,34.0,30.32,North,10,0.0,2.0,54,0.00,,,0.00,,2013-01-08 18:13:00,
2013-01-08 13:23:00,51.0,34.0,30.31,NW,326,0.0,0.0,53,0.00,,,0.00,,2013-01-08 18:23:00,
2013-01-08 13:33:00,52.0,36.0,30.31,NW,326,0.0,2.0,54,0.00,,,0.00,,2013-01-08 18:33:00,
2013-01-08 13:43:00,52.0,36.0,30.31,NW,326,0.0,2.0,54,0.00,,,0.00,,2013-01-08 18:43:00,
2013-01-08 13:53:00,53.0,35.0,30.30,NNW,327,0.0,3.0,51,0.00,,,0.00,,2013-01-08 18:53:00,
2013-01-08 14:03:00,54.0,36.0,30.30,NNE,20,0.0,4.0,50,0.00,,,0.00,,2013-01-08 19:03:00,
2013-01-08 14:12:00,54.0,36.0,30.30,NNE,20,0.0,4.0,50,0.00,,,0.00,,2013-01-08 19:12:00,
2013-01-08 14:23:00,54.0,36.0,30.29,ENE,73,0.0,1.0,50,0.00,,,0.00,,2013-01-08 19:23:00,
2013-01-08 14:33:00,55.0,36.0,30.29,ENE,73,0.0,2.0,49,0.00,,,0.00,,2013-01-08 19:33:00,
2013-01-08 14:42:00,55.0,36.0,30.29,ENE,73,0.0,2.0,49,0.00,,,0.00,,2013-01-08 19:42:00,
2013-01-08 14:53:00,57.0,38.0,30.29,ENE,74,0.0,1.0,49,0.00,,,0.00,,2013-01-08 19:53:00,
2013-01-08 15:03:00,57.0,39.0,30.29,SSE,160,0.0,1.0,50,0.00,,,0.00,,2013-01-08 20:03:00,
2013-01-08 15:12:00,57.0,39.0,30.29,SSE,160,0.0,1.0,50,0.00,,,0.00,,2013-01-08 20:12:00,
2013-01-08 15:23:00,57.0,40.0,30.28,East,85,1.0,4.0,53,0.00,,,0.00,,2013-01-08 20:23:00,
2013-01-08 15:33:00,57.0,41.0,30.28,South,190,1.0,6.0,54,0.00,,,0.00,,2013-01-08 20:33:00,
2013-01-08 15:43:00,57.0,41.0,30.28,South,190,1.0,6.0,54,0.00,,,0.00,,2013-01-08 20:43:00,
2013-01-08 15:54:00,56.0,40.0,30.28,ENE,60,0.0,4.0,54,0.00,,,0.00,,2013-01-08 20:54:00,
2013-01-08 16:03:00,56.0,41.0,30.28,East,86,0.0,1.0,56,0.00,,,0.00,,2013-01-08 21:03:00,
2013-01-08 16:13:00,56.0,41.0,30.28,East,86,0.0,1.0,56,0.00,,,0.00,,2013-01-08 21:13:00,
2013-01-08 16:23:00,55.0,41.0,30.29,South,179,0.0,0.0,58,0.00,,,0.00,,2013-01-08 21:23:00,
2013-01-08 16:33:00,55.0,41.0,30.29,South,178,0.0,0.0,59,0.00,,,0.00,,2013-01-08 21:33:00,
2013-01-08 16:43:00,55.0,41.0,30.29,South,178,0.0,0.0,59,0.00,,,0.00,,2013-01-08 21:43:00,
2013-01-08 16:53:00,55.0,41.0,30.29,South,174,0.0,0.0,59,0.00,,,0.00,,2013-01-08 21:53:00,
2013-01-08 17:03:00,54.0,41.0,30.30,South,174,0.0,0.0,62,0.00,,,0.00,,2013-01-08 22:03:00,
2013-01-08 17:12:00,54.0,41.0,30.30,South,174,0.0,0.0,62,0.00,,,0.00,,2013-01-08 22:12:00,
2013-01-08 17:23:00,53.0,41.0,30.31,South,174,0.0,0.0,63,0.00,,,0.00,,2013-01-08 22:23:00,
2013-01-08 17:33:00,53.0,42.0,30.31,South,174,0.0,0.0,66,0.00,,,0.00,,2013-01-08 22:33:00,
2013-01-08 17:43:00,53.0,42.0,30.31,South,174,0.0,0.0,66,0.00,,,0.00,,2013-01-08 22:43:00,
2013-01-08 17:53:00,52.0,41.0,30.31,South,174,0.0,0.0,67,0.00,,,0.00,,2013-01-08 22:53:00,
2013-01-08 18:03:00,51.0,42.0,30.31,South,174,0.0,1.0,70,0.00,,,0.00,,2013-01-08 23:03:00,
2013-01-08 18:13:00,51.0,42.0,30.31,South,174,0.0,1.0,70,0.00,,,0.00,,2013-01-08 23:13:00,
2013-01-08 18:22:00,50.0,41.0,30.31,South,174,0.0,0.0,71,0.00,,,0.00,,2013-01-08 23:22:00,
2013-01-08 18:33:00,50.0,41.0,30.31,South,174,0.0,0.0,72,0.00,,,0.00,,2013-01-08 23:33:00,
2013-01-08 18:43:00,50.0,41.0,30.31,South,174,0.0,0.0,72,0.00,,,0.00,,2013-01-08 23:43:00,
2013-01-08 18:53:00,49.0,41.0,30.30,South,174,0.0,0.0,73,0.00,,,0.00,,2013-01-08 23:53:00,
2013-01-08 19:03:00,48.0,40.0,30.30,South,174,0.0,0.0,75,0.00,,,0.00,,2013-01-09 00:03:00,
2013-01-08 19:12:00,48.0,40.0,30.30,South,174,0.0,0.0,75,0.00,,,0.00,,2013-01-09 00:12:00,
2013-01-08 19:22:00,47.0,40.0,30.31,South,174,0.0,0.0,77,0.00,,,0.00,,2013-01-09 00:22:00,
2013-01-08 19:33:00,46.0,40.0,30.31,South,174,0.0,0.0,78,0.00,,,0.00,,2013-01-09 00:33:00,
2013-01-08 19:43:00,46.0,40.0,30.31,South,174,0.0,0.0,78,0.00,,,0.00,,2013-01-09 00:43:00,
2013-01-08 19:53:00,45.0,40.0,30.31,South,174,0.0,0.0,81,0.00,,,0.00,,2013-01-09 00:53:00,
2013-01-08 20:02:00,45.0,40.0,30.31,South,174,0.0,0.0,81,0.00,,,0.00,,2013-01-09 01:02:00,
2013-01-08 20:12:00,45.0,40.0,30.31,South,174,0.0,0.0,81,0.00,,,0.00,,2013-01-09 01:12:00,
2013-01-08 20:22:00,45.0,40.0,30.32,South,174,0.0,0.0,82,0.00,,,0.00,,2013-01-09 01:22:00,
2013-01-08 20:33:00,44.0,39.0,30.32,South,174,0.0,0.0,83,0.00,,,0.00,,2013-01-09 01:33:00,
2013-01-08 20:42:00,44.0,39.0,30.32,South,174,0.0,0.0,83,0.00,,,0.00,,2013-01-09 01:42:00,
2013-01-08 20:52:00,44.0,39.0,30.31,South,174,0.0,0.0,84,0.00,,,0.00,,2013-01-09 01:52:00,
2013-01-08 21:02:00,44.0,40.0,30.32,South,174,0.0,0.0,85,0.00,,,0.00,,2013-01-09 02:02:00,
2013-01-08 21:12:00,44.0,40.0,30.32,South,174,0.0,0.0,85,0.00,,,0.00,,2013-01-09 02:12:00,
2013-01-08 21:22:00,44.0,40.0,30.32,South,174,0.0,0.0,85,0.00,,,0.00,,2013-01-09 02:22:00,
2013-01-08 21:33:00,44.0,39.0,30.32,South,174,0.0,0.0,84,0.00,,,0.00,,2013-01-09 02:33:00,
2013-01-08 21:43:00,44.0,39.0,30.32,South,174,0.0,0.0,84,0.00,,,0.00,,2013-01-09 02:43:00,
2013-01-08 21:53:00,45.0,40.0,30.32,South,174,0.0,0.0,84,0.00,,,0.00,,2013-01-09 02:53:00,
2013-01-08 22:03:00,45.0,40.0,30.32,South,174,0.0,1.0,84,0.00,,,0.00,,2013-01-09 03:03:00,
2013-01-08 22:12:00,45.0,40.0,30.32,South,174,0.0,1.0,84,0.00,,,0.00,,2013-01-09 03:12:00,
2013-01-08 22:22:00,45.0,40.0,30.31,South,174,0.0,1.0,83,0.00,,,0.00,,2013-01-09 03:22:00,
2013-01-08 22:33:00,46.0,41.0,30.31,South,174,0.0,1.0,82,0.00,,,0.00,,2013-01-09 03:33:00,
2013-01-08 22:43:00,46.0,41.0,30.31,South,174,0.0,1.0,82,0.00,,,0.00,,2013-01-09 03:43:00,
2013-01-08 22:53:00,47.0,41.0,30.31,South,174,0.0,0.0,80,0.00,,,0.00,,2013-01-09 03:53:00,
2013-01-08 23:02:00,47.0,41.0,30.31,South,174,0.0,0.0,80,0.00,,,0.00,,2013-01-09 04:02:00,
2013-01-08 23:12:00,47.0,41.0,30.31,South,174,0.0,0.0,80,0.00,,,0.00,,2013-01-09 04:12:00,
2013-01-08 23:22:00,47.0,41.0,30.31,South,174,0.0,0.0,80,0.00,,,0.00,,2013-01-09 04:22:00,
2013-01-08 23:32:00,46.0,40.0,30.31,South,174,0.0,0.0,80,0.00,,,0.00,,2013-01-09 04:32:00,
2013-01-08 23:42:00,45.0,40.0,30.31,South,174,0.0,0.0,83,0.00,,,0.00,,2013-01-09 04:42:00,
2013-01-08 23:52:00,45.0,40.0,30.31,South,174,0.0,0.0,83,0.00,,,0.00,,2013-01-09 04:52:00,